Location: Newark
(55.8372°N, 37.1596°E)
Time: 16:43:41
(UTC+00:00)

Envisat - Visible Passes

Search period start: 18 October 2019 00:00
Search period end: 28 October 2019 00:00
Orbit: 764 x 766 km, 98.1° (Epoch: 18 October)

Date Brightness Start Highest point End Pass type
(mag) Time Alt. Az. Time Alt. Az. Time Alt. Az.
18 Oct 3.3 15:28:03 10° S 15:33:08 75° WSW 15:38:15 10° NNW visible
18 Oct 6.0 17:10:14 10° WSW 17:13:04 15° W 17:15:55 10° NW visible
19 Oct 5.9 03:29:39 10° NE 03:33:42 23° E 03:37:44 10° SE visible
19 Oct 5.2 16:31:31 10° SSW 16:35:48 27° W 16:40:07 10° NNW visible
20 Oct 6.4 02:54:13 10° NE 02:56:23 13° E 02:58:32 10° ESE visible
20 Oct 4.0 15:53:49 10° S 15:58:44 49° W 16:03:41 10° NNW visible
21 Oct 3.0 15:16:45 10° SSE 15:21:51 89° WSW 15:26:59 10° NNW visible
21 Oct 5.8 16:58:13 10° SW 17:01:38 18° W 17:05:03 10° NW visible
22 Oct 6.0 03:18:38 10° NE 03:22:18 19° E 03:25:56 10° SE visible
22 Oct 4.9 16:19:54 10° SSW 16:24:26 32° W 16:29:00 10° NNW visible
23 Oct 6.7 02:44:20 10° ENE 02:44:55 10° E 02:45:29 10° E visible
23 Oct 3.7 15:42:24 10° S 15:47:25 59° W 15:52:28 10° NNW visible
23 Oct 6.2 17:26:00 10° W 17:27:34 11° W 17:29:09 10° WNW visible
24 Oct 3.0 15:05:31 10° SSE 15:10:36 78° ENE 15:15:42 10° NNW visible
24 Oct 5.5 16:46:23 10° SW 16:50:13 21° W 16:54:05 10° NW visible
25 Oct 6.1 03:07:42 10° NE 03:10:53 16° E 03:14:02 10° ESE visible
25 Oct 4.5 16:08:21 10° SSW 16:13:05 38° W 16:17:50 10° NNW visible
26 Oct 3.3 15:31:03 10° S 15:36:06 70° WSW 15:41:14 10° NNW visible
26 Oct 6.1 17:13:33 10° WSW 17:16:06 14° W 17:18:42 10° NW visible
27 Oct 5.7 03:32:33 10° NE 03:36:44 25° E 03:40:52 10° SE visible
27 Oct 3.0 14:54:19 10° SSE 14:59:20 66° ENE 15:04:24 10° NNW visible
27 Oct 5.3 16:34:39 10° SW 16:38:50 25° W 16:43:02 10° NW visible
